{"data":{"norad_id":54680,"epoch":"2026-05-25T04:26:17.321280Z","epoch_age_seconds":63071,"freshness":"FRESH","line1":"1 54680U 22166AQ  26145.18492270  .00000035  00000+0  58684-4 0  9993","line2":"2 54680  87.9107 233.3409 0001956  86.0192 274.1162 13.16593164169039","mean_motion":13.16593164,"eccentricity":0.0001956,"inclination_deg":87.9107,"raan_deg":233.3409,"arg_perigee_deg":86.0192,"mean_anomaly_deg":274.1162,"bstar":5.8684e-5,"rev_number":16903,"period_min":109.3731943454,"perigee_km":1196.2790143398,"apogee_km":1199.2427055826,"semimajor_km":7575.8978599612,"source":"CELESTRAK","updated_at":"2026-05-25T13:38:22.638527Z"}}